Погода Весёлая Горка

Погода Весёлая Горка : погода сейчас, прогноз погоды и архив. Всё, что Вы хотите узнать о погоде Весёлая Горка!

Поиск расширенной информации на нашем сайте:

Другие новости

Новости СМИ2

Главная страница сайта

Новости сайта

02.10.2013

Напоминаем, что на нашем новом сайте вы можете получить высокодетализированные прогнозы погоды по пунктам России, СНГ и мира (включающие важные для авиации метеовеличины, такие как направление и скорость ветра, видимость, явления погоды, количество и форма облачности, нижняя и верхняя граница облачности), а также ознакомиться с разнообразными материалами по авиационной метеорологии и подборкой полезных ссылок на эту тему.

Сайт Метеоцентр.Азия посвящён разработке технологий оптимизации авиаметеорологического обслуживания, включая проектирование и перспективное создание нескольких автоматизированных авиаметеорологических систем:
- система выпуска высокодетальных прогностических карт явлений погоды для нижнего воздушного пространства по России и ближнему зарубежью;
- система верификации прогнозов TAF (выпускаемых синоптиками официальных АМСГ РФ и ближнего зарубежья) и AUTOTAF (выпускаемых сайтом Метеоцентр.Азия) - выявление ошибок, онлайн-сопоставление с фактической погодой METAR, автоматическое внесение коррективов в прогнозы при резком отклонении фактической погоды от прогноза, подсчёт оправдываемости прогнозов по элементам и в целом;
- система обработки, анализа и отображения авиаметеорологической информации для применения провайдерами метеорологической информации.


Погода Весёлая Горка - сегодня

Время (UTC), дата Ветер
(°,м/с) 
Видим.   Явления Облачность Т
(°С)
Тd
(°С)
f(%) Тe
(°С)
Pmin
(гПа)
dP
(гПа)
Po
(мм)
O2
(г/м3)
Тmin Tmax R s Состояние
почвы
18 19.02.17 тихо ()   20000 м    ясно 
-22.1 -26.4 68 -22  1013.9  -0.6  740  326           
21 19.02.17 тихо ()   20000 м    ясно 
-22.9 -27 69 -23  1014.2  0.2  740  327  -23.2      27  равномерный
сухой снег
100% 
00 20.02.17 230 (ЮЗ) н/о    н/о 
-17.8 -25.9 49 -18  1014.3  0.6  741  321           
03 20.02.17 020 (С) н/о    н/о 
-14.2 -24.3 42 -14  1013.2  -0.7  740  316           
06 20.02.17 030 (СВ) н/о    н/о 
-12.2 -26.1 30 -14  1012.7  -0.2  740  314           
09 20.02.17 тихо ()   20000 м    ясно 
-14.8 -25.8 39 -15  1014.2  1.1  741  317    -11.4       
12 20.02.17 тихо ()   н/о    н/о 
-19.3 -26.3 54 -19  1016.1  1.4  742  323           
15 20.02.17 140 (ЮВ) н/о    н/о 
-20.7 -25 68 -21  1016.5  0.2  742  325           
18 20.02.17 220 (ЮЗ) н/о    н/о 
-18.6 -25.3 56 -19  1016.9  0.5  742  323           
21 20.02.17 тихо ()   20000 м    ясно 
-19.2 -24.1 65 -19  1018.1  1.2  743  324  -21      27  равномерный
сухой снег
100% 
00 21.02.17 тихо ()   20000 м    ясно 
-15.2 -21.2 60 -15  1018.8  1.2  744  319           
03 21.02.17 360 (С) 20000 м    ясно 
-11.5 -19.9 50 -13  1018.1  -0.3  744  314           
06 21.02.17 040 (СВ) н/о    н/о 
-8.1 -22.9 29 -8  1017.2  -0.4  743  310           
09 21.02.17 тихо ()   20000 м    6/0 верхняя 
[Ci]
-13.2 -24 40 -13  1018.5  744  317    -10.6       
12 21.02.17 тихо ()   н/о    н/о 
-14.1 -22.8 48 -14  1019.4  0.6  745  318           
15 21.02.17 тихо ()   н/о    н/о 
-14.8 -22.1 54 -15  1019.3  0.6  744  319           
18 21.02.17 тихо ()   н/о    н/о 
-17.1 -21.7 67 -17  1018.5  -1  744  321           
21 21.02.17 тихо ()   20000 м    8/0 верхняя 
[Ci]
-19.5 -22.1 80 -20  1018.3  -0.4  743  324  -19.8      27  равномерный
сухой снег
100% 
00 22.02.17 360 (С) 20000 м    10/0 средняя, верхняя 
[Ac lent|Cs]
-18.3 -20.2 85 -19  1017.7  -0.3  743  322  -20.5         
03 22.02.17 360 (С) 20000 м    3/0 средняя, верхняя 
[Ac lent|Ci fib]
-12.6 -17.8 65 -13  1015.2  -1.9  742  315           
06 22.02.17 050 (СВ) н/о    н/о 
-10.5 -20.9 42 -12  1013  -2.2  740  312           
09 22.02.17 тихо ()   20000 м    10/0 средняя, верхняя 
[Ac trans|Ci fib]
-12.5 -19.7 55 -13  1012.9  740  314    -9.9       
12 22.02.17 320 (СЗ) 20000 м    4/0 верхняя 
[Ci fib]
-14.6 -19.7 65 -15  1013.1  -0.1  740  316           
15 22.02.17 290 (З) 20000 м    3/0 верхняя 
[Ci fib]
-14.6 -19.7 65 -15  1012.9  -0.2  740  316           
18 22.02.17 тихо ()   20000 м    ясно 
-16.5 -19.9 75 -17  1012.6  -0.4  740  319           
Время (UTC), дата Ветер
(°,м/с) 
Видим.   Явления Облачность Т
(°С)
Тd
(°С)
f(%) Тe
(°С)
Pmin
(гПа)
dP
(гПа)
Po
(мм)
O2
(г/м3)
Тmin Tmax R s Состояние
почвы

Для получения пояснительной информации подведите курсор к названию столбца.

ПОГОДА Весёлая Горка - архив

Всё, что Вы хотите узнать о погоде Весёлая Горка - удобно и подробно!

Выберите нужную дату (начиная с 1 января 2015* года) и нажмите кнопку "Найти".
Будут отображены архивные сводки погоды по пункту Весёлая Горка, начиная с указанной даты.


Отображать данные в формате CSV (для использования в таблицах Excel)


Внимание! Наш архив погоды предназначен исключительно для личного некоммерческого использования в познавательных целях. Если Вам необходимы официальные справки о состоянии погоды (для производственных, юридических, коммерческих и т.п. целей), обращайтесь в органы Росгидромета.

*Примечание: данная дата относится к архиву по метеостанциям СССР (Россия, СНГ, Балтия).
Архив по метеостанциям Зарубежной Европы и Азии (кроме Китая) хранится 10 дней, по другим регионам земного шара (Китай, Африка, Америка, Австралия, Океания) - 1 день.

Весёлая Горка - район местоположения метеостанции


Название, широта, долгота, высота метеостанции:
Весёлая Горка 52.3°ш. 135.8°д. 201 м над ур. моря [Российская Федерация]

Дополнительная информация

В oтличие oт бoльшинства пoгoдных сайтoв мы публикуем пoдрoбную метеoинфoрмацию в детальнoм прoфессиoнальнoм фoрмате.

Характеристики температуры и влажнoсти вoздуха измеряются на высoте 2 м в тени вдали oт зданий и деревьев.
Скoрoсть ветра измеряется на высoте 10 м (на урoвне рoста челoвека скoрoсть ветра ниже в 1.5-2 раза). Если метеoстанция нахoдится в гoрoде или в лесу, тo скoрoсть ветра занижена на 2-4 м/с пo сравнению с oткрытым местoм. Скoрoсть ветра над акватoриями крупных рек и oзёр, а также на вершинах хoлмoв на 2-5 м/с выше, чем в oбычных услoвиях.
Атмoсфернoе давление в разных тoчках местнoсти мoжет значительнo oтличаться oт давления на метеoстанции, в зависимoсти oт услoвий рельефа (при пoдъёме на 10 м давление пoнижается примернo на 1 мм рт.ст.).